FW8434 Weather Reports


time (UTC)temp
C
wind
direction
speed
KPH
gust
KPH
rain 1hr
cm
rain 24hr
cm
rain mn
cm
humidity
%
barometer
mb
20260506033033 15 0 0.0 0.0 0.00 0.00 0.00 86 1014.1
20260506031530 15 0 0.0 0.0 0.00 0.00 0.00 85 1014.0
20260506030030 15 0 0.0 0.0 0.00 0.00 0.00 84 1013.9
20260506024529 15 0 0.0 0.0 0.00 0.00 0.00 83 1013.9
20260506023027 15 0 0.0 0.0 0.00 0.00 0.00 84 1013.7
20260506021530 15 0 0.0 0.0 0.00 0.00 0.00 83 1013.8
20260506020100 16 0 0.0 1.6 0.00 0.00 0.00 83 1013.8
20260506014528 16 266 0.0 1.6 0.00 0.00 0.00 81 1013.8
20260506013030 16 0 0.0 3.2 0.00 0.00 0.00 80 1013.7
20260506011528 16 277 0.0 3.2 0.00 0.00 0.00 79 1013.7
20260506010031 16 273 0.0 1.6 0.00 0.00 0.00 79 1013.6
20260506004527 16 316 0.0 3.2 0.00 0.00 0.00 77 1013.6
20260506003028 16 0 0.0 3.2 0.00 0.00 0.00 79 1013.6
20260506001528 16 234 0.0 3.2 0.00 0.00 0.00 78 1013.6
20260506000043 16 0 0.0 1.6 0.00 0.00 0.00 78 1013.9
20260505234532 16 312 0.0 3.2 0.00 0.00 0.00 79 1014.0
20260505233028 16 0 0.0 6.4 0.00 0.00 0.00 79 1013.9
20260505231530 16 197 1.6 4.8 0.00 0.00 0.00 77 1014.1
20260505230041 16 256 1.6 6.4 0.00 0.00 0.00 77 1013.9
20260505224528 16 224 0.0 4.8 0.00 0.00 0.00 76 1014.2
20260505223034 16 215 0.0 3.2 0.00 0.00 0.00 77 1014.3
20260505221529 17 288 0.0 4.8 0.00 0.00 0.00 76 1014.4
20260505220029 17 233 0.0 3.2 0.00 0.00 0.00 77 1014.3
20260505214530 17 0 1.6 4.8 0.00 0.00 0.00 73 1014.3
20260505213030 19 248 1.6 8.0 0.00 0.00 0.00 68 1014.6
20260505211536 18 191 0.0 3.2 0.00 0.00 0.00 73 1014.5
20260505210029 17 288 1.6 6.4 0.00 0.00 0.00 77 1014.6
20260505204529 16 286 0.0 3.2 0.00 0.00 0.00 76 1014.7
20260505203030 16 0 0.0 3.2 0.00 0.00 0.00 79 1014.6
20260505201531 16 0 0.0 3.2 0.00 0.00 0.00 78 1014.9
20260505200028 15 0 0.0 1.6 0.00 0.00 0.00 79 1014.8
20260505194529 15 227 0.0 4.8 0.00 0.00 0.00 81 1014.7
20260505193027 15 283 0.0 4.8 0.00 0.00 0.00 82 1015.0
20260505191533 15 271 0.0 1.6 0.00 0.00 0.00 82 1014.9
20260505190031 13 0 0.0 3.2 0.00 0.00 0.00 84 1014.8
20260505184537 13 242 0.0 1.6 0.00 0.00 0.00 86 1014.9
20260505183029 14 272 0.0 1.6 0.00 0.00 0.00 85 1014.9
20260505181532 13 0 0.0 0.0 0.00 0.00 0.00 84 1014.9
20260505180029 13 0 0.0 1.6 0.00 0.00 0.00 86 1014.7
20260505174536 13 0 0.0 1.6 0.00 0.00 0.00 85 1014.8
20260505173030 13 0 0.0 0.0 0.00 0.00 0.00 89 1014.6
20260505171536 13 108 0.0 1.6 0.00 0.00 0.00 87 1014.6
20260505170028 13 259 0.0 1.6 0.00 0.00 0.00 89 1014.5
20260505164530 13 178 0.0 1.6 0.00 0.00 0.00 89 1014.5
20260505163030 13 0 0.0 0.0 0.00 0.00 0.00 91 1014.4
20260505161530 12 0 0.0 1.6 0.00 0.00 0.00 92 1014.4
20260505153037 11 139 0.0 1.6 0.00 0.00 0.00 93 1014.2
20260505151527 11 242 0.0 1.6 0.00 0.00 0.00 93 1014.2
20260505124530 11 0 0.0 1.6 0.00 0.00 0.00 91 1013.2
20260505123045 11 252 0.0 3.2 0.00 0.00 0.00 90 1013.1
20260505121528 11 0 0.0 0.0 0.00 0.00 0.00 90 1013.1
20260505120034 11 0 0.0 0.0 0.00 0.00 0.00 90 1013.1
20260505114530 11 0 0.0 1.6 0.00 0.00 0.00 89 1013.0
20260505113032 11 0 0.0 3.2 0.00 0.00 0.00 89 1013.0
20260505111534 11 266 0.0 3.2 0.00 0.00 0.00 89 1013.0
20260505101528 12 274 0.0 1.6 0.00 0.00 0.00 88 1012.7
20260505100032 12 0 0.0 0.0 0.00 0.00 0.00 88 1012.8
20260505094531 12 166 0.0 6.4 0.00 0.00 0.00 88 1012.5
20260505093030 12 0 0.0 6.4 0.00 0.00 0.00 87 1012.5
20260505091530 12 232 0.0 4.8 0.00 0.00 0.00 87 1012.3
20260505090027 12 191 0.0 3.2 0.00 0.00 0.00 87 1012.4
20260505084534 12 0 1.6 8.0 0.00 0.00 0.00 86 1012.2
20260505083028 12 0 0.0 3.2 0.00 0.00 0.00 86 1012.3
20260505081528 13 0 1.6 8.0 0.00 0.00 0.00 86 1012.1
20260505080029 13 252 1.6 6.4 0.00 0.00 0.00 86 1012.0
20260505074530 13 181 0.0 6.4 0.00 0.00 0.00 85 1011.9
20260505073029 13 0 0.0 4.8 0.00 0.00 0.00 84 1011.6
20260505071528 14 214 0.0 6.4 0.00 0.00 0.00 82 1011.4
20260505070031 15 108 0.0 8.0 0.00 0.00 0.00 81 1011.4
20260505064533 15 221 1.6 9.7 0.00 0.00 0.00 80 1011.1
20260505063029 16 267 3.2 12.9 0.00 0.00 0.00 80 1011.0
20260505061529 16 0 0.0 6.4 0.00 0.00 0.00 78 1010.8
20260505060030 16 257 0.0 4.8 0.00 0.00 0.00 78 1010.7
20260505054543 17 0 0.0 6.4 0.00 0.00 0.00 79 1010.6
20260505053027 17 229 4.8 9.7 0.00 0.00 0.00 79 1010.6
20260505051528 17 179 1.6 6.4 0.00 0.00 0.00 81 1010.6
20260505041530 17 0 0.0 0.0 0.00 0.00 0.00 81 1009.9
20260505040031 17 0 0.0 0.0 0.00 0.00 0.00 81 1009.7
20260505034535 17 170 0.0 1.6 0.00 0.00 0.00 79 1009.5